Location: Newark
(57.7279°N, 5.6916°W)
Time: 12:47:35
(UTC+00:00)

N. Korean satellite - Pass Details

Date: 12 December 2019
Orbit: 454 x 508 km, 97.2° (Epoch: 18 January)

Event Time Altitude Azimuth Distance (km) Brightness Sun altitude
Rises 17:57:03 0° 192° (SSW) 2,603 10.7 -16.9°
Reaches altitude 10° 17:59:21 10° 204° (SSW) 1,718 9.9 -17.2°
Maximum altitude 18:02:35 28° 266° (W) 964 8.8 -17.6°
Drops below altitude 10° 18:05:50 10° 327° (NNW) 1,711 9.5 -18.0°
Sets 18:08:07 0° 339° (NNW) 2,591 10.3 -18.3°
